Location: Bruy�res-du-Haut-du-May
(46.7421°N, 3.2986°E)
Time: 09:33:55
(UTC+00:00)

Daily predictions for brighter satellites

Satellite Brightness Start Highest point End
(mag) Time Altitude Azimuth Time Altitude Azimuth Time Altitude Azimuth
STARLINK-1096 3.7 20:04:58 10° WNW 20:09:06 71° SSW 20:13:13 10° SE
Okean 3 3.5 20:04:59 10° S 20:09:14 67° E 20:13:32 10° NNE
ASTEX 1 4.5 20:06:22 10° SSW 20:11:04 47° W 20:15:50 10° NNW
STARLINK-1104 4.5 20:07:14 10° WNW 20:11:16 48° NNE 20:15:17 10° E
STARLINK-1230 3.6 20:07:47 10° WSW 20:11:57 88° SE 20:16:06 10° ENE
STARLINK-1079 3.8 20:09:58 10° WNW 20:14:05 66° SW 20:18:10 10° SE
STARLINK-1144 4.4 20:12:13 10° WNW 20:16:16 50° NNE 20:20:19 10° E
STARLINK-1243 3.7 20:12:47 10° WSW 20:16:56 86° NNW 20:21:06 10° ENE
Cosmos 2221 Rocket 3.6 20:12:36 10° S 20:17:06 75° E 20:21:41 10° NNE
SL-4 R/B 2.3 20:14:14 10° NW 20:17:08 39° WSW 20:19:49 10° S
STARLINK-1116 3.9 20:14:57 10° WNW 20:19:03 61° SW 20:23:07 10° SE
SPOT 5 4.4 20:15:02 10° ESE 20:19:19 26° ENE 20:23:40 10° N
NOSS 8 (F) 4.3 20:16:59 10° SSW 20:20:11 50° SE 20:23:10 10° NE
Meteor 1-13 Rocket 4.3 20:15:13 10° S 20:20:44 61° E 20:26:25 10° NNE
STARLINK-1103 4.3 20:17:11 10° WNW 20:21:16 52° NNE 20:25:19 10° E
STARLINK-1236 3.8 20:17:45 10° WSW 20:21:54 81° NNW 20:26:04 10° ENE
ERS-1 Rocket 4.1 20:20:03 10° SE 20:24:25 31° ENE 20:28:48 10° N
STARLINK-1101 4.2 20:22:10 10° WNW 20:26:15 55° NNE 20:30:20 10° E
STARLINK-1094 4.1 20:24:56 10° WNW 20:28:58 52° SW 20:32:47 11° SE
USA 245 3.0 20:27:56 11° SE 20:30:38 40° ENE 20:33:04 10° N
STARLINK-1102 4.1 20:27:10 10° WNW 20:31:15 57° NNE 20:35:21 10° ESE
STARLINK-1269 3.9 20:27:44 10° WSW 20:31:53 72° NNW 20:36:02 10° ENE
Cosmos 2278 Rocket 3.0 20:27:26 10° SW 20:33:01 58° WNW 20:38:39 10° NNE
TSX-5 4.4 20:27:37 10° SSW 20:33:14 58° ESE 20:37:36 10° NE
STARLINK-1117 4.2 20:29:56 10° WNW 20:33:57 48° SW 20:37:34 12° SE
Okean 1 Rocket 3.8 20:29:54 10° N 20:34:07 39° ENE 20:37:54 12° SE
Resurs 01 Rocket 2.1 20:29:44 10° S 20:34:08 62° W 20:38:34 10° NNW
GPS 2-04 Rocket1 4.4 20:32:33 10° SW 20:34:27 14° S 20:35:57 11° SSE
Cosmos 1741 Rocket 4.0 20:29:24 10° NNW 20:34:38 83° ENE 20:39:48 10° SSE
Okean 2 Rocket 3.4 20:30:29 10° NNW 20:34:53 68° W 20:39:14 10° S
Nadezhda 4 Rocket 4.5 20:29:18 10° SSE 20:34:59 41° E 20:40:41 10° NNE
STARLINK-1111 4.0 20:32:08 10° WNW 20:36:15 60° NNE 20:40:21 10° ESE
STARLINK-1200 4.0 20:32:43 10° WSW 20:36:51 68° NNW 20:40:59 10° ENE
MetOp-B 4.2 20:32:39 10° SSE 20:38:00 87° ENE 20:43:23 10° NNW
Meteor 1-12 Rocket 4.5 20:32:32 10° NNW 20:38:12 73° W 20:43:52 10° S
STARLINK-1078 4.3 20:34:56 10° WNW 20:38:53 44° SW 20:42:21 13° SSE
SL-8 R/B 3.7 20:36:22 10° WNW 20:41:12 88° N 20:46:02 10° ESE
STARLINK-1073 3.9 20:37:07 10° WNW 20:41:15 64° NNE 20:45:22 10° ESE
STARLINK-1192 4.1 20:37:44 10° WSW 20:41:51 64° NNW 20:45:59 10° ENE
Cosmos 2279 Rocket 4.1 20:36:40 10° N 20:42:55 81° W 20:49:08 10° S
STARLINK-1108 4.4 20:39:57 10° WNW 20:43:51 41° SW 20:47:08 14° SSE
Cosmos 1850 Rocket 4.2 20:38:51 10° NNW 20:44:13 80° WSW 20:49:25 11° SSE
Cosmos 371 Rocket 3.7 20:40:09 10° SSW 20:44:58 68° WNW 20:49:52 10° NNE
ATLAS 3B CENTAUR R/B 4.3 20:34:26 10° SW 20:45:28 25° S 20:50:57 13° SE
STARLINK-1121 3.9 20:42:05 10° WNW 20:46:14 68° NNE 20:50:08 11° ESE
SL-4 R/B 3.7 20:43:13 10° S 20:46:25 18° SE 20:49:40 10° E
STARLINK-1244 4.2 20:42:43 10° WSW 20:46:50 61° NNW 20:50:57 10° ENE
Cosmos 1110 Rocket 4.2 20:42:11 10° S 20:47:09 48° ESE 20:52:07 10° NNE
Terra 3.0 20:44:22 12° ESE 20:48:04 30° ENE 20:52:11 10° N
Spot 2 Rocket 3.5 20:44:06 10° SSE 20:49:08 89° ENE 20:54:14 10° NNW
Cosmos 2151 Rocket 3.9 20:45:07 10° NNW 20:49:39 69° W 20:54:08 10° S
Abrixas rocket 1.9 20:46:48 10° WNW 20:49:44 67° SSW 20:51:50 17° ESE
SPOT 1/Viking Rocket 3.6 20:45:17 12° SSE 20:50:01 67° ENE 20:55:09 10° N
CARTOSAT-1 4.2 20:47:49 14° SE 20:51:12 43° ENE 20:55:18 10° N
STARLINK-1106 3.8 20:47:05 10° WNW 20:51:14 72° NNE 20:54:56 13° ESE
NOSS 8 (H) 4.1 20:48:11 10° SSW 20:51:21 64° SE 20:54:22 10° NE
STARLINK-1138 4.3 20:47:44 10° WSW 20:51:50 58° NNW 20:55:56 10° ENE
STARLINK-1112 3.7 20:52:02 10° WNW 20:56:12 76° NNE 20:59:42 14° ESE
STARLINK-1143 4.4 20:52:43 10° W 20:56:48 55° NNW 21:00:53 10° ENE
Aureole 2 4.0 20:55:35 10° NNW 20:58:44 81° ENE 21:00:36 20° SSE
STARLINK-1128 3.6 20:57:00 10° WNW 21:01:10 81° NNE 21:04:28 16° ESE
Cosmos 1331 Rocket 4.0 20:58:51 10° S 21:03:54 61° ESE 21:09:01 10° NNE
deb Kosmos-1763 4.0 21:00:51 10° NNW 21:04:27 77° WSW 21:06:57 19° SSE
Aureole 2 Rocket 2.2 21:01:38 10° SSW 21:04:44 74° WNW 21:07:43 10° NNE
STARLINK-1113 3.6 21:02:00 10° WNW 21:06:10 86° NNE 21:09:16 17° ESE
Cosmos 1733 4.1 21:04:00 10° N 21:07:30 33° ENE 21:09:32 20° SE
Cosmos 1437 Rocket 3.4 21:05:59 10° SSW 21:09:41 53° WNW 21:13:27 10° N
STARLINK-1119 3.6 21:07:00 10° WNW 21:11:10 89° SSW 21:14:03 19° ESE
Cosmos 1378 3.3 21:09:41 18° SSE 21:12:12 55° E 21:15:51 10° NNE
ISS -1.6 21:13:36 10° W 21:15:40 15° SW 21:17:01 13° SSW
STARLINK-1114 3.6 21:11:58 10° WNW 21:16:07 84° SSW 21:18:49 21° SE
Cosmos 1242 Rocket 4.3 21:15:26 17° ESE 21:16:16 18° E 21:18:49 10° NE
Cosmos 304 Rocket 4.0 21:11:36 10° SSW 21:16:22 72° WNW 21:21:11 10° NNE
USA 215 4.5 21:10:37 10° ENE 21:16:36 40° NNE 21:22:35 10° NW
Lacrosse 5 3.5 21:14:46 10° WNW 21:18:40 23° SW 21:22:07 12° S
Cosmos 1092 Rocket 4.1 21:15:31 16° SSE 21:20:26 58° E 21:26:28 10° NNE
STARLINK-1130 (DARKSAT) 3.6 21:16:57 10° WNW 21:21:06 78° SSW 21:23:36 23° SE
NOSS 2-2 (D) 3.0 21:17:36 10° SW 21:21:09 80° SE 21:25:06 10° NE
CENTAUR R/B 3.6 21:15:40 10° NW 21:23:24 56° NE 21:31:08 13° ESE
Cosmos 1674 Rocket 4.4 21:20:37 10° SSW 21:24:51 49° WNW 21:29:09 10° N
STARLINK-1084 3.6 21:21:56 10° WNW 21:26:05 73° SSW 21:28:23 25° SE
ATLAS 3B R/B 4.1 21:20:21 10° NNW 21:26:21 32° NNE 21:32:29 10° E
Cosmos 1378 Rocket 4.1 21:23:21 10° SSW 21:27:42 59° WNW 21:32:03 10° N
SL-27 R/B 3.3 21:24:30 10° N 21:27:54 39° ENE 21:29:28 25° ESE
NOSS 3-2 (C) 4.3 21:21:23 10° NW 21:28:44 62° NE 21:35:36 16° ESE
Cosmos 1766 3.2 21:26:35 10° N 21:30:35 82° E 21:32:47 26° SSE
STARLINK-1098 3.6 21:26:55 10° WNW 21:31:03 68° SSW 21:33:10 27° SE
STARLINK-1123 3.7 21:31:54 10° WNW 21:36:00 63° SW 21:37:56 29° SE
Cosmos 1943 Rocket 2.1 21:31:46 10° SSW 21:37:10 68° ESE 21:42:45 10° NNE
Cosmos 2297 4.3 21:31:47 10° SW 21:37:23 60° WNW 21:43:05 10° NNE
Cosmos 1900 4.4 21:33:03 10° NW 21:38:06 77° WSW 21:41:01 26° SSE
NOSS 2-2 (E) 3.9 21:34:57 10° SW 21:38:29 57° NW 21:42:35 10° NE
NOSS 3-4 (A) 4.3 21:36:32 23° SSE 21:38:42 28° ESE 21:43:53 10° ENE
NOSS 3-4 (C) 4.3 21:36:40 23° SE 21:38:49 28° ESE 21:43:59 10° ENE
STARLINK-1097 3.8 21:36:55 10° WNW 21:41:00 58° SW 21:42:45 31° SSE
Cosmos 2082 Rocket 4.1 21:38:37 10° NW 21:42:56 22° W 21:47:12 10° SSW
SeaSat 1 3.7 21:39:58 10° NE 21:43:47 22° ESE 21:44:35 21° ESE
STARLINK-1099 3.9 21:41:54 10° WNW 21:45:57 53° SW 21:47:31 33° SSE
Cosmos 1975 Rocket 3.0 21:44:36 25° S 21:47:11 78° E 21:51:36 10° NNE
STARLINK-1212 4.3 21:45:41 10° NW 21:48:35 35° NNE 21:50:46 15° E
STARLINK-1105 4.3 21:46:09 10° NW 21:49:03 35° NNE 21:51:13 15° E
STARLINK-1247 4.3 21:47:01 10° NW 21:49:56 36° NNE 21:52:06 15° E
STARLINK-1227 4.3 21:47:30 10° NW 21:50:25 36° NNE 21:52:32 16° E
BREEZE-M DEB (TANK) 3.8 21:33:37 10° WSW 21:50:33 87° SSE 21:54:40 10° ENE
Cosmos 292 Rocket 4.0 21:48:20 27° SSE 21:50:37 50° ESE 21:55:18 10° NNE
STARLINK-1104 4.0 21:46:53 10° WNW 21:50:54 49° SW 21:52:18 34° SSE
STARLINK-1226 4.3 21:48:22 10° NW 21:51:18 36° NNE 21:53:23 16° E
BREEZE-M DEB (TANK) 3.5 21:47:29 10° W 21:51:40 59° N 21:55:17 10° E
STARLINK-1215 4.3 21:49:15 10° NW 21:52:12 36° NNE 21:54:16 16° E
Cosmos 2369 Rocket 2.2 21:49:04 18° S 21:53:21 66° ESE 21:58:58 10° NNE
STARLINK-1217 4.2 21:51:04 10° NW 21:54:01 37° NNE 21:56:00 17° E
STARLINK-1229 4.2 21:51:59 10° NW 21:54:56 37° NNE 21:56:54 18° E
STARLINK-1270 4.2 21:52:52 10° NW 21:55:50 38° NNE 21:57:46 18° E
STARLINK-1144 4.1 21:51:54 10° WNW 21:55:52 46° SW 21:57:05 34° S
SPOT 5 3.7 21:53:31 20° S 21:57:02 52° W 22:02:17 10° NNW
STARLINK-1189 4.1 21:54:40 10° NW 21:57:38 39° NNE 21:59:29 19° E
STARLINK-1188 4.1 21:55:35 10° NW 21:58:33 39° NNE 22:00:22 19° E
Aureole 3 Rocket 4.5 21:52:23 10° N 21:58:37 68° E 22:03:54 24° SSE
ATLAS CENTAUR R/B 2.8 21:59:35 23° ESE 21:59:35 23° ESE 22:02:35 10° ENE
STARLINK-1187 4.0 21:56:41 10° NW 21:59:39 42° NNE 22:01:14 22° E
STARLINK-1103 4.2 21:56:53 10° WNW 22:00:49 42° SW 22:01:51 35° S
STARLINK-1191 4.1 21:58:01 10° NW 22:00:59 40° NNE 22:02:40 21° E
Cosmos 1340 Rocket 4.5 21:57:50 10° NNE 22:01:07 23° ENE 22:02:31 19° E
STARLINK-1221 4.0 21:58:58 10° NW 22:01:56 40° NNE 22:03:34 21° E
STARLINK-1222 4.0 21:59:49 10° NW 22:02:48 41° NNE 22:04:24 22° E
ERS-1 Rocket 4.0 21:59:40 17° SSW 22:03:06 38° W 22:07:48 10° NNW
NOSS 2-2 (C) 4.5 21:59:45 10° WSW 22:03:10 42° NW 22:07:06 10° NNE
STARLINK-1214 4.0 22:00:43 10° NW 22:03:42 41° NNE 22:05:16 22° E
Cosmos 1025 Rocket 3.6 22:02:58 32° SE 22:04:06 39° E 22:08:08 10° NNE
Okean 2 3.8 22:02:00 22° SSW 22:04:34 60° WNW 22:08:42 10° N
EXPRESS MD2 4.2 22:00:54 10° W 22:04:37 72° N 22:12:17 10° ENE
Cosmos 2026 Rocket 4.0 22:00:23 21° S 22:04:51 89° W 22:11:16 10° N
Thor Agena Rocket 4.0 22:00:04 10° NNE 22:05:09 45° E 22:07:12 31° SSE
STARLINK-1101 4.3 22:01:53 10° WNW 22:05:46 39° SW 22:06:38 34° S
ATLAS 2AS CENTAUR R/B 3.2 22:00:30 17° S 22:06:37 54° ESE 22:14:17 10° NE
Cosmos 1656 Rocket 4.1 22:04:50 30° SSE 22:07:04 44° ESE 22:12:20 10° NE
BREEZE M DEB (TANK) 2.5 22:03:24 10° W 22:07:07 60° NNW 22:08:33 19° ENE
Cosmos 1553 Rocket 4.1 22:02:09 10° N 22:08:25 68° ENE 22:11:43 29° SSE
BREEZE-M DEB (TANK) 4.2 21:54:13 10° WNW 22:09:07 86° SSW 22:11:56 23° ESE
Cosmos 1953 3.4 22:06:00 10° N 22:09:36 31° ENE 22:10:41 27° ESE
STARLINK-1228 3.6 22:06:08 10° WNW 22:09:36 58° NNE 22:11:08 29° E
NOSS 3-2 (A) 4.2 22:02:39 10° NW 22:10:08 66° WSW 22:15:11 26° SSE
STARLINK-1102 4.4 22:06:55 10° WNW 22:10:44 36° SW 22:11:26 33° SSW
Cosmos 1470 2.7 22:06:54 10° N 22:10:47 71° E 22:11:51 45° SSE
APEX 4.3 22:06:47 19° SSW 22:11:30 70° ESE 22:16:52 10° NNE
STARLINK-1235 3.5 22:08:51 10° NW 22:12:03 55° NNE 22:13:11 33° E
Cosmos 968 Rocket 3.4 22:10:06 10° NNW 22:15:17 83° ENE 22:17:31 35° SSE
STARLINK-1111 4.5 22:11:56 10° WNW 22:15:41 33° SW 22:16:12 32° SSW
Cosmos 1455 Rocket 3.3 22:13:22 10° NNW 22:17:40 60° W 22:19:25 33° SSW
Cosmos 1655 Rocket 4.3 22:15:02 29° SSE 22:17:58 53° E 22:24:03 10° NNE
SL-4 R/B 3.5 22:20:18 12° NE 22:20:18 12° NE 22:20:46 10° NE
ATLAS 5 CENTAUR R/B 2.0 22:21:46 43° ESE 22:21:46 43° ESE 22:24:00 10° ENE
USA 238 DEB 4.2 22:14:54 10° NW 22:21:55 55° WSW 22:25:51 28° S
USA 238 4.2 22:15:01 10° NW 22:22:02 56° WSW 22:25:58 28° S
SL-8 R/B 4.4 22:19:06 10° W 22:23:29 36° SW 22:24:13 34° SSW
Cosmos 1758 3.2 22:20:13 10° N 22:24:18 88° E 22:25:25 47° S
SL-4 R/B 2.3 22:20:46 10° SW 22:25:32 71° SSE 22:30:23 10° ENE
Terra 2.9 22:23:15 21° SSW 22:25:42 35° W 22:30:06 10° NNW
Cosmos 1842 4.2 22:24:08 23° SW 22:26:08 43° WNW 22:29:52 10° N
STARLINK-1234 3.0 22:26:35 10° WNW 22:29:52 76° NNE 22:30:16 63° E
Cosmos 1503 Rocket 4.0 22:30:06 10° NNW 22:35:27 89° ENE 22:37:35 38° SSE
STARLINK-1209 2.8 22:32:45 10° WNW 22:36:03 87° NNE 22:36:13 80° ESE
Cosmos 2266 Rocket 4.2 22:33:43 32° SSE 22:36:14 53° E 22:42:06 10° NNE
Meteor 2-8 Rocket 4.4 22:35:06 10° N 22:41:17 88° E 22:44:07 35° S
Cosmos 2263 4.3 22:39:18 20° SW 22:43:16 74° WNW 22:48:54 10° NNE
Cosmos 1536 Rocket 3.5 22:45:44 46° SSW 22:47:00 83° W 22:51:24 10° N
Cosmos 1674 3.7 22:48:20 32° E 22:48:26 32° E 22:51:50 10° NNE
Cosmos 1271 Rocket 3.4 22:49:29 35° SW 22:50:43 50° WNW 22:54:34 10° N
Cosmos 1242 Rocket 4.0 22:49:25 24° WSW 22:50:53 33° WNW 22:54:16 10° N
STARLINK-60 3.5 22:52:21 21° W 22:54:17 56° NNW 22:57:26 10° NE
Cosmos 1354 Rocket 4.0 22:49:27 10° NNW 22:54:46 72° WSW 22:56:35 41° S
Spot 4 3.9 22:53:29 42° S 22:55:03 71° WSW 22:59:55 10° NNW
STARLINK-1206 4.4 22:51:09 10° WNW 22:55:12 50° NNE 22:58:21 16° E
COSMOS 2455 2.8 22:52:50 35° S 22:55:25 67° ESE 23:01:25 10° NE
Cosmos 883 Rocket 4.5 22:50:11 10° N 22:56:20 71° E 22:58:57 36° SSE
USA 215 3.4 22:52:57 12° ESE 22:59:05 72° NNE 23:05:37 10° NW
Cosmos 1833 4.4 22:53:42 10° NW 22:59:14 57° WSW 23:01:10 38° S
STARLINK-1205 4.3 22:56:07 10° WNW 23:00:11 53° NNE 23:03:07 18° E
Cosmos 1707 3.4 22:59:44 37° WSW 23:00:46 49° WNW 23:04:34 10° N
Cosmos 2297 Rocket 4.1 22:57:12 10° N 23:01:47 24° NE 23:06:21 10° E
Helios 1A 3.9 23:01:35 32° ESE 23:02:45 40° ENE 23:06:41 10° N
STARLINK-1218 4.2 23:01:06 10° WNW 23:05:12 55° NNE 23:07:55 20° E
Cosmos 1174 3.2 23:06:36 86° NE 23:06:36 86° NE 23:10:17 10° NE
Cosmos 1726 2.2 23:03:18 10° NNW 23:07:00 64° W 23:07:20 60° SW
ALOS 2 2.5 23:07:47 53° SSE 23:08:48 83° ENE 23:13:13 10° NNW
Timation 2 Rocket 4.3 23:03:16 10° NNW 23:09:33 60° ENE 23:12:54 27° SE
STARLINK-1254 4.1 23:06:04 10° WNW 23:10:10 58° NNE 23:12:41 22° E
Cosmos 2058 Rocket 4.3 23:06:36 10° N 23:10:36 32° ENE 23:11:58 26° ESE
COSMOS 2487 2.5 23:07:11 10° NNW 23:10:32 65° W 23:10:32 65° W
CENTAUR R/B 3.5 23:06:31 10° NW 23:14:19 51° WSW 23:18:17 31° S
STARLINK-1231 4.0 23:11:03 10° WNW 23:15:10 61° NNE 23:17:27 25° E
Meteor 2-5 Rocket 4.1 23:14:12 36° SE 23:15:56 49° E 23:21:19 10° NNE
Meteor 1-16 Rocket 4.2 23:10:30 10° NNW 23:16:00 71° W 23:17:49 42° SSW
Cosmos 1867 3.9 23:12:08 10° NW 23:17:25 51° WSW 23:18:45 41° SSW
ATLAS 3B R/B 2.6 23:10:54 10° NW 23:17:44 81° SW 23:21:09 33° SSE
FALCON 9 DEB 3.7 23:20:08 48° ENE 23:20:08 48° ENE 23:22:43 10° ENE
STARLINK-1232 3.9 23:16:02 10° WNW 23:20:10 65° NNE 23:22:15 28° E
Cosmos 1606 Rocket 3.5 23:16:26 10° N 23:20:47 76° E 23:21:37 56° SSE
Cosmos 1943 Rocket 4.2 23:16:58 10° W 23:21:27 24° NW 23:25:59 10° N
SeaSat 1 2.9 23:16:45 10° NNE 23:21:37 59° WNW 23:24:20 26° SW
Cosmos 2098 Rocket 4.3 23:20:08 35° S 23:23:32 82° E 23:31:03 10° N
STARLINK-29 3.3 23:24:02 60° NW 23:24:10 61° NNW 23:27:21 10° ENE
STARLINK-1208 3.8 23:21:00 10° WNW 23:25:08 69° NNE 23:27:00 31° ESE
NOSS 5 (C) 4.4 23:22:23 10° NW 23:25:32 76° WSW 23:25:32 76° WSW
ATLAS CENTAUR R/B 3.3 23:25:56 10° NNW 23:27:46 22° NE 23:30:36 10° E
NOSS 3-4 (A) 3.8 23:23:52 14° SW 23:29:06 61° NW 23:35:28 10° NE
NOSS 3-4 (C) 3.8 23:24:01 14° SW 23:29:11 62° NW 23:35:35 10° NE
STARLINK-1365 4.4 23:31:11 35° E 23:31:11 35° E 23:33:45 10° ENE
RESURS DK-1 2.3 23:29:48 63° SE 23:30:07 66° ESE 23:34:14 10° NNE
STARLINK-1271 3.7 23:26:00 10° WNW 23:30:09 73° NNE 23:31:49 35° ESE
STARLINK-1390 4.4 23:33:34 35° E 23:33:34 35° E 23:36:07 10° ENE
Cosmos 2084 3.5 23:33:36 58° SSE 23:34:02 62° SE 23:38:28 10° NE
Cosmos 2315 Rocket 4.0 23:28:19 10° NNW 23:34:31 76° W 23:36:59 39° S
STARLINK-1154 3.7 23:30:59 10° WNW 23:35:08 77° NNE 23:36:36 39° ESE
BREEZE-M R/B 3.8 23:31:44 27° SSW 23:35:19 50° SSE 23:39:20 10° ENE
Cosmos 1626 2.8 23:36:00 42° E 23:36:04 42° E 23:39:36 10° NNE
Cosmos 1340 Rocket 3.9 23:33:58 10° NNW 23:37:37 32° W 23:38:06 31° WSW
Cosmos 2369 Rocket 4.2 23:33:15 10° WSW 23:37:53 25° NW 23:42:30 10° N
ATLAS CENTAUR R/B 2.3 23:35:43 25° WSW 23:37:55 47° NW 23:41:54 10° NNE
Okean 1-7 Rocket 3.9 23:37:39 47° SE 23:38:28 55° E 23:42:54 10° NNE
Cosmos 2227 Rocket 3.5 23:33:45 10° NNW 23:39:00 36° NE 23:43:29 13° ESE
STARLINK-1197 3.6 23:35:56 10° WNW 23:40:06 82° NNE 23:41:21 44° ESE
Nadezhda 2 Rocket 4.4 23:39:44 40° S 23:42:05 77° E 23:48:13 10° NNE
Cosmos 1908 3.4 23:38:33 10° NNW 23:42:17 54° W 23:42:29 53° WSW
Aureole 3 4.3 23:42:10 10° NNW 23:44:31 27° WNW 23:44:31 27° WNW
STARLINK-1198 3.5 23:40:54 10° WNW 23:45:05 87° NE 23:46:07 49° ESE
Cosmos 1953 4.0 23:42:43 10° NW 23:45:49 22° W 23:46:22 21° W
STARLINK-1199 3.5 23:45:54 10° WNW 23:50:05 88° SSW 23:50:56 55° SE
Landsat 4 3.5 23:47:04 10° NNE 23:50:47 87° E 23:51:00 79° S
KORONAS-FOTON 4.4 23:52:25 42° WSW 23:52:55 45° WNW 23:56:39 10° N
STARLINK-1210 3.4 23:50:53 10° WNW 23:55:02 82° SSW 23:55:42 61° SE
